カタログに戻る

STARLINK-4001

運用中通信VLEO
NORAD 52628·PAYLOAD·🇺🇸 United States

打ち上げ May 14, 2022 から Cape Canaveral Space Force Station

Loading…

次のパス (今後24時間)

TLE

最新Source: CelesTrak SupGP

元期: Sep 14, 2026, 21:32 UTC

1 52628C 22052AG  26257.89770833 -.00024463  00000+0 -69983-3 0  2576
2 52628  53.1562 142.4879 0001281  93.7628 210.2108 15.35414541    17

AllMySatでSTARLINK-4001をリアルタイム追跡

Download on the App Store